Texhoma, OK (73949)

7:02 PM CDT on August 29, 2016 (GMT -0500)
Grass Land | | Change Station
Active Advisory: Areal Flood Watch

Elev 3323 ft 36.55 °N, 101.66 °W | Updated 13 minutes ago

Light Rain
Light Rain
70.2 °F
Feels Like 71 °F
N
3.2
Wind Variable Wind from SSE

Today
High -- | Low -- °F
--% Chance of Precip.
Yesterday
High -- | Low -- °F
Precip. -- in
Pressure 30.09 in
Visibility 10.0 miles
Clouds Scattered Clouds 8500 ft
Mostly Cloudy 11000 ft
Heat Index 71 °F
Dew Point 63 °F
Humidity 79%
Rainfall 0.07 in
Snow Depth Not available.
7:16 AM 8:18 PM
Waning Crescent, 6% visible
METAR KGUY 292353Z AUTO 00000KT 10SM -RA SCT085 BKN110 22/18 A3020 RMK AO2 RAB00E22B47 SLP189 P0000 60000 T02220178 10222 20211 55004
Pressure 30.09 in
Visibility 10.0 miles
Clouds Scattered Clouds 8500 ft
Mostly Cloudy 11000 ft
Heat Index 71 °F
Dew Point 63 °F
Humidity 79%
Rainfall 0.07 in
Snow Depth Not available.
7:16 AM 8:18 PM
Waning Crescent, 6% visible
METAR KGUY 292353Z AUTO 00000KT 10SM -RA SCT085 BKN110 22/18 A3020 RMK AO2 RAB00E22B47 SLP189 P0000 60000 T02220178 10222 20211 55004

10-Day Weather Forecast

Almanac

Astronomy

Aug. 29, 2016 Rise Set
Actual Time
Civil Twilight
Nautical Twilight
Astronomical Twilight
Moon
Length of Visible Light
Length of Day
Tomorrow will be .
, % of the Moon is Illuminated

Today's Extremes

State Highs State Lows

Community

WunderPhotos

Upload Photos

1,935,699 photos uploaded!

WunderBlog® & News

Nearby

Air Quality

  Air Quality AQ Index Pollutant
Not available.

Snow Depth

Station Depth Elevation

Earthquake Activity

City Distance Mag. Time & Date
Minimum magnitude displayed is 2.5.

Coastal Water Temperatures

Place Temperature

Stations

Nearby Weather Stations

Station Location Temp. Windchill Dew Point Humidity Wind Precip. Elev Updated Type
                   

Watches & Warnings

Areal Flood Watch
Issued: 3:49 PM CDT Aug. 29, 2016 – National Weather Service

... Flood Watch remains in effect through Wednesday morning...

The Flood Watch continues for

* portions of Oklahoma and Texas... including the following
areas... in Oklahoma... Beaver and Texas. In Texas...
Collingsworth... Donley... gray... Hansford... Hemphill...
Hutchinson... Lipscomb... Ochiltree... Roberts and Wheeler.

* Through Wednesday morning

* periods of scattered to numerous thunderstorms with heavy rain
are expected across most of the Texas and Oklahoma panhandles
through Wednesday morning. Areas in the watch have already
seen heavy rains over the last two days resulting in saturated
soil conditions. This combined with additional heavy rain
expected through Wednesday morning will lead to excessive
runoff and possible flooding.

Precautionary/preparedness actions...

A Flood Watch means there is a potential for flooding based on
current forecasts. You should monitor later forecasts and be
alert for possible flood warnings. Those living in areas prone to
flooding should be prepared to take action should flooding
develop.